Regional Weather Roundup
Issued by NWS

Home | Current Version | Previous Version | Text Only | Print | Product List | Glossary Off
Versions: 1 2 3 4 5 6 7 8 9 10 11 12 13 14 15 16 17 18 19 20 21 22 23 24 25 26 27 28 29 30 31 32 33 34 35 36 37 38 39 40 41 42 43 44 45 46 47 48 49 50

404
ASUS43 KIND 212100
RWRIN

WEATHER ROUNDUP FOR INDIANA
NATIONAL WEATHER SERVICE INDIANAPOLIS IN
500 PM EDT THU SEP 21 2017

NOTE: "FAIR" INDICATES FEW OR NO CLOUDS BELOW 12,000 FEET WITH NO
SIGNIFICANT WEATHER AND/OR OBSTRUCTIONS TO VISIBILITY.

* - STATION DOES NOT REPORT WEATHER SUCH AS PRECIPITATION OR FOG.

+ - STATION NOT QUALITY CONTROLLED BY THE NATIONAL WEATHER SERVICE.
    USE DATA WITH CAUTION...ESPECIALLY DEWPOINT AND RELATIVE
    HUMIDITY OBSERVATIONS.

INZ001>003-010>013-019-020-212200-
NORTHWEST INDIANA

CITY           SKY/WX    TMP DP  RH WIND       PRES   REMARKS
GARY /AIRPORT/ MOSUNNY   93  64  38 VRB5      29.99F HX  95

$$

LMZ046-743>745-212200-
SOUTHERN LAKE MICHIGAN

STATION/POSITION TIME  TEMP    WIND        PRES    WAVE
                       AIR SEA DIR/SP/G            HT
                 (UTC) (F)     (DEG/KT/KT) (MB)    (FT)
BURNS HARBOR     2040   78      80/ 10/ 12 1016.3S
MICHIGAN CITY    2030   74      40/ 11/ 11   N/A
5NW MICH CITY    2050   74 73   60/  6/  8   N/A     1

$$

INZ004-005-014>016-021>024-212200-
NORTH CENTRAL INDIANA

CITY           SKY/WX    TMP DP  RH WIND       PRES   REMARKS
ELKHART        MOSUNNY   90  70  51 S6        30.01F HX  95
GOSHEN         SUNNY     90  69  50 VRB6      30.02F
SOUTH BEND     MOSUNNY   89  71  55 S7        30.02F HX  95

$$

INZ006>009-017-018-025>027-212200-
NORTHEAST INDIANA

CITY           SKY/WX    TMP DP  RH WIND       PRES   REMARKS
FORT WAYNE     MOSUNNY   89  68  49 W7        30.03F
KENDALLVILLE + MOSUNNY   88  70  54 CALM      30.05F

$$

INZ028-029-035-036-043>045-051>053-212200-
WEST CENTRAL INDIANA

CITY           SKY/WX    TMP DP  RH WIND       PRES   REMARKS
LAFAYETTE      SUNNY     91  69  48 S6        30.00F HX  96
TERRE HAUTE    MOSUNNY   94  64  37 S7        30.01F HX  95

$$

INZ030>032-037>040-046>048-054>057-064-065-212200-
CENTRAL INDIANA

CITY           SKY/WX    TMP DP  RH WIND       PRES   REMARKS
INDIANAPOLIS   MOSUNNY   90  67  46 SW5       30.03F
-EAGLE CREEK   SUNNY     91  65  41 S6        30.02F
KOKOMO +       SUNNY     89  72  56 S6        30.04F HX  96
MT COMFORT *+  MOSUNNY   91  68  46 SW7       30.04  HX  95
SHELBYVILLE    MOSUNNY   91  65  41 S3        30.03F

$$

INZ033-034-041-042-049-050-058-059-212200-
EAST CENTRAL INDIANA

CITY           SKY/WX    TMP DP  RH WIND       PRES   REMARKS
MUNCIE         SUNNY     91  66  43 VRB3      30.04F
RICHMOND +     MOSUNNY   86  68  54 W5        30.07F

$$

INZ060-061-067>069-081>083-085>088-212200-
SOUTHWEST INDIANA

CITY           SKY/WX    TMP DP  RH WIND       PRES   REMARKS
EVANSVILLE     SUNNY     91  67  44 SE3       30.01F
HUNTINGBURG +  SUNNY     91  71  51 SE6       30.02F HX  97

$$

INZ062-063-066-070>080-084-089>092-212200-
SOUTH CENTRAL AND SOUTHEAST INDIANA

CITY           SKY/WX    TMP DP  RH WIND       PRES   REMARKS
BLOOMINGTON    SUNNY     89  66  46 SE9       30.03F
MADISON *+     MOSUNNY   90  66  45 W3        30.07F
SEYMOUR +      SUNNY     90  66  45 E3        30.03F

$$





USA.gov is the U.S. government's official web portal to all federal, state and local government web resources and services.